カタログに戻る

ATLAS 5 CENTAUR R/B

運用中HEO
NORAD 35816·ROCKET BODY·🇺🇸 United States

打ち上げ Sep 8, 2009 から Cape Canaveral Space Force Station

Loading…

次のパス (今後24時間)

TLE

最新Source: Space-Track

元期: Sep 13, 2026, 01:36 UTC

1 35816U 09047B   26256.06735957 -.00000093  00000-0  00000+0 0  9998
2 35816  22.4749 183.7675 5195438 282.4445  26.3767  1.94976991 53042

AllMySatでATLAS 5 CENTAUR R/Bをリアルタイム追跡

Download on the App Store